Location: Los Gatos B&B
(42.6926°N, 77.0646°W)
Time: 19:56:42
(UTC-04:00)

Cosmos 2263 Rocket - Visible Passes

Search period start: 30 September 2014 00:00
Search period end: 10 October 2014 00:00
Orbit: 826 x 847 km, 71.0° (Epoch: 30 September)

Date Brightness Start Highest point End Pass type
(mag) Time Alt. Az. Time Alt. Az. Time Alt. Az.
30 Sep 4.0 21:38:05 10° N 21:40:21 19° NNE 21:40:21 19° NNE visible
30 Sep 4.9 23:21:29 10° NNW 23:22:03 13° NW 23:22:03 13° NW visible
01 Oct 3.9 21:21:33 10° N 21:24:06 20° NNE 21:24:06 20° NNE visible
01 Oct 4.7 23:04:49 10° NNW 23:05:48 15° NW 23:05:48 15° NW visible
02 Oct 3.8 21:05:01 10° N 21:07:53 20° NNE 21:07:53 20° NNE visible
02 Oct 4.5 22:48:10 10° NNW 22:49:35 18° NW 22:49:35 18° NW visible
03 Oct 3.8 20:48:30 10° N 20:51:42 20° NE 20:51:42 20° NE visible
03 Oct 4.3 22:31:32 10° NNW 22:33:24 22° NNW 22:33:24 22° NNW visible
04 Oct 3.7 20:31:59 10° N 20:35:33 19° NE 20:35:33 19° NE visible
04 Oct 4.0 22:14:53 10° NNW 22:17:15 26° NNW 22:17:15 26° NNW visible
05 Oct 3.7 20:15:29 10° N 20:19:14 18° NE 20:19:26 18° NE visible
05 Oct 3.6 21:58:15 10° NNW 22:01:09 32° NNW 22:01:09 32° NNW visible
06 Oct 3.7 19:58:59 10° N 20:02:32 17° NE 20:03:22 16° ENE visible
06 Oct 3.2 21:41:37 10° NNW 21:45:05 40° NNW 21:45:05 40° NNW visible
07 Oct 3.8 19:42:31 10° N 19:45:50 16° NE 19:47:22 14° ENE visible
07 Oct 2.8 21:25:00 10° NNW 21:29:05 50° NNW 21:29:05 50° NNW visible
08 Oct 3.9 19:26:04 10° NNE 19:29:08 15° NE 19:31:25 12° ENE visible
08 Oct 2.3 21:08:22 10° NNW 21:13:08 65° N 21:13:08 65° N visible
08 Oct 5.0 22:54:29 10° WNW 22:54:52 11° WNW 22:54:52 11° WNW visible
09 Oct 3.9 19:09:38 10° NNE 19:12:26 14° NE 19:15:14 10° ENE visible
09 Oct 2.0 20:51:46 10° NNW 20:57:17 76° NE 20:57:17 76° NE visible
09 Oct 4.8 22:37:32 10° WNW 22:39:00 14° W 22:39:00 14° W visible
